Weather History for PADU - January, 2014

Change the Weather History Date:

Friday, January 31, 2014

  Actual Average Record
Temperature  
Mean Temperature 37 °F -  
Max Temperature 41 °F 33 °F 46 °F (1985)
Min Temperature 33 °F 24 °F 8 °F (1997)
Degree Days  
Heating Degree Days 28    
Moisture  
Dew Point 29 °F    
Average Humidity 75    
Maximum Humidity 93    
Minimum Humidity 60    
Precipitation  
Precipitation 0.02 in - - ()
Sea Level Pressure  
Sea Level Pressure 30.24 in    
Wind  
Wind Speed 9 mph (SW)    
Max Wind Speed 24 mph    
Max Gust Speed 31 mph    
Visibility 9 miles    
Events Rain , Snow    
Averages and records for this station are not official NWS values.
T = Trace of Precipitation, MM = Missing Value Source: NWS Daily Summary

Daily Weather History Graph

Daily Weather History Graph

Search for Another Location

Airport or City:

Trip Planner

Search our weather history database for the weather conditions in past years. The results will help you decide how hot, cold, wet, or windy it might be!

Date:

Astronomy

Jan. 31, 2014 Rise Set
Actual Time 9:53 AM AKST 6:46 PM AKST
Civil Twilight 9:15 AM AKST 7:24 PM AKST
Nautical Twilight 8:32 AM AKST 8:07 PM AKST
Astronomical Twilight 7:51 AM AKST 8:48 PM AKST
Moon 9:54 AM AKST (1/31) 8:48 PM AKST (1/31)
Length of Visible Light 10h 09m
Length of Day
8h 52m
New Moon, 1% of the Moon is Illuminated
Jan 31
New Moon
Feb 6
First Quarter
Feb 14
Full
Feb 22
Last Quarter
Feb 28
New

Hourly Weather History & Observations

Time (AKST) Temp. Windchill Dew Point Humidity Pressure Visibility Wind Dir Wind Speed Gust Speed Precip Events Conditions
12:56 AM 41.0 °F 30.9 °F 34.0 °F 76% 29.95 in 8.0 mi WSW 24.2 mph 28.8 mph 0.00 in Rain Light Rain
1:11 AM 41.0 °F 31.9 °F 30.2 °F 65% 29.95 in 10.0 mi WSW 19.6 mph 31.1 mph 0.00 in Rain Light Rain
1:32 AM 41.0 °F 34.3 °F 30.2 °F 65% 29.95 in 10.0 mi WSW 11.5 mph - 0.00 in Rain Light Rain
1:56 AM 41.0 °F 33.9 °F 30.9 °F 67% 29.99 in 10.0 mi West 12.7 mph 20.7 mph 0.00 in   Overcast
2:56 AM 41.0 °F 34.7 °F 28.0 °F 60% 30.01 in 10.0 mi WSW 10.4 mph 20.7 mph N/A   Overcast
3:56 AM 41.0 °F 33.1 °F 30.9 °F 67% 30.03 in 10.0 mi WSW 15.0 mph - N/A   Overcast
4:56 AM 39.0 °F 31.8 °F 30.9 °F 73% 30.07 in 10.0 mi South 11.5 mph - N/A   Overcast
5:56 AM 39.9 °F 33.9 °F 28.9 °F 65% 30.09 in 10.0 mi SW 9.2 mph - N/A   Overcast
6:16 AM 39.2 °F - 28.4 °F 65% 30.08 in 10.0 mi Calm Calm - N/A   Mostly Cloudy
6:56 AM 37.9 °F 32.1 °F 28.9 °F 70% 30.11 in 10.0 mi SSW 8.1 mph - N/A   Partly Cloudy
7:20 AM 37.4 °F 31.4 °F 28.4 °F 70% 30.10 in 10.0 mi SSW 8.1 mph 19.6 mph N/A   Scattered Clouds
7:56 AM 37.9 °F 32.7 °F 28.9 °F 70% 30.14 in 10.0 mi SSW 6.9 mph - N/A   Scattered Clouds
7:57 AM 37.4 °F 32.1 °F 28.4 °F 70% 30.13 in 10.0 mi SSW 6.9 mph - N/A   Scattered Clouds
8:56 AM 37.0 °F 34.5 °F 27.0 °F 67% 30.16 in 10.0 mi South 3.5 mph - N/A   Scattered Clouds
9:56 AM 36.0 °F 31.1 °F 27.0 °F 70% 30.19 in 10.0 mi SSW 5.8 mph - N/A   Scattered Clouds
10:08 AM 35.6 °F 32.8 °F 26.6 °F 70% 30.17 in 10.0 mi SSW 3.5 mph - N/A   Scattered Clouds
10:56 AM 36.0 °F - 25.0 °F 64% 30.21 in 10.0 mi Calm Calm - N/A   Scattered Clouds
11:17 AM 35.6 °F - 24.8 °F 65% 30.20 in 10.0 mi Calm Calm - N/A   Scattered Clouds
11:56 AM 37.0 °F 34.5 °F 26.1 °F 65% 30.23 in 10.0 mi NNW 3.5 mph - N/A   Scattered Clouds
12:56 PM 37.9 °F 33.5 °F 27.0 °F 65% 30.24 in 10.0 mi WSW 5.8 mph - N/A   Scattered Clouds
1:26 PM 37.4 °F 32.8 °F 28.4 °F 70% 30.23 in 10.0 mi South 5.8 mph - N/A   Scattered Clouds
1:56 PM 37.9 °F 34.4 °F 27.0 °F 65% 30.26 in 10.0 mi SW 4.6 mph - N/A   Scattered Clouds
1:57 PM 37.4 °F 33.8 °F 26.6 °F 65% 30.24 in 10.0 mi SSW 4.6 mph - N/A   Scattered Clouds
2:56 PM 37.9 °F 31.5 °F 28.9 °F 70% 30.26 in 10.0 mi South 9.2 mph - 0.00 in Rain Light Rain
3:03 PM 37.4 °F 33.8 °F 28.4 °F 70% 30.24 in 10.0 mi South 4.6 mph - 0.00 in   Scattered Clouds
3:30 PM 37.4 °F 33.8 °F 30.2 °F 75% 30.25 in 10.0 mi SW 4.6 mph - 0.00 in   Scattered Clouds
3:56 PM 37.9 °F 34.4 °F 30.0 °F 73% 30.27 in 10.0 mi SW 4.6 mph - 0.00 in   Scattered Clouds
4:50 PM 37.4 °F 32.8 °F 30.2 °F 75% 30.27 in 10.0 mi WSW 5.8 mph - N/A   Mostly Cloudy
4:56 PM 37.0 °F 33.3 °F 30.0 °F 76% 30.29 in 10.0 mi SW 4.6 mph - N/A   Mostly Cloudy
5:56 PM 37.9 °F 35.5 °F 28.9 °F 70% 30.31 in 10.0 mi North 3.5 mph - N/A   Mostly Cloudy
6:56 PM 37.0 °F - 28.9 °F 73% 30.35 in 10.0 mi Calm Calm - N/A   Mostly Cloudy
7:24 PM 37.4 °F 29.3 °F 30.2 °F 75% 30.35 in 10.0 mi West 12.7 mph - N/A   Overcast
7:42 PM 35.6 °F 28.0 °F 30.2 °F 81% 30.36 in 4.0 mi WNW 10.4 mph - N/A Rain Light Rain
7:51 PM 33.8 °F 29.6 °F 30.2 °F 87% 30.37 in 2.5 mi WNW 4.6 mph - N/A Snow Light Snow
7:56 PM 34.0 °F - 30.9 °F 89% 30.38 in 2.5 mi Calm Calm - N/A Snow Light Snow
8:03 PM 33.8 °F - 30.2 °F 87% 30.37 in 5.0 mi Calm Calm - 0.00 in Snow Light Snow
8:21 PM 33.8 °F - 30.2 °F 87% 30.38 in 10.0 mi Calm Calm - 0.00 in   Overcast
8:56 PM 34.0 °F 31.0 °F 32.0 °F 92% 30.42 in 10.0 mi West 3.5 mph - 0.01 in Rain Light Rain
8:59 PM 33.8 °F 30.8 °F 32.0 °F 93% 30.40 in 8.0 mi WSW 3.5 mph - 0.00 in Rain Light Rain
9:11 PM 33.8 °F - 30.2 °F 87% 30.40 in 4.0 mi Calm Calm - 0.00 in   Overcast
9:24 PM 33.8 °F - 30.2 °F 87% 30.40 in 10.0 mi Calm Calm - 0.00 in Rain Light Rain
9:41 PM 33.8 °F - 30.2 °F 87% 30.41 in 10.0 mi Calm Calm - 0.00 in   Mostly Cloudy
9:56 PM 33.1 °F - 30.9 °F 92% 30.42 in 9.0 mi Calm Calm - 0.00 in   Overcast
10:50 PM 33.8 °F - 30.2 °F 87% 30.43 in 10.0 mi Calm Calm - 0.01 in Rain Light Rain
10:56 PM 33.1 °F - 30.9 °F 92% 30.45 in 10.0 mi Calm Calm - 0.01 in   Overcast
11:10 PM 33.8 °F - 30.2 °F 87% 30.44 in 10.0 mi Calm Calm - N/A   Overcast
11:56 PM 34.0 °F - 30.0 °F 85% 30.48 in 7.0 mi Calm Calm - 0.00 in Rain Light Rain